Regional Weather Roundup
Issued by NWS

Home | Current Version | Previous Version | Text Only | Print | Product List | Glossary On
Versions: 1 2 3 4 5 6 7 8 9 10 11 12 13 14 15 16 17 18 19 20 21 22 23 24 25 26 27 28 29 30 31 32 33 34 35 36 37 38 39 40 41 42 43 44 45 46 47 48 49 50
000
ASUS43 KFSD 221902
RWRSD

WEATHER ROUNDUP FOR SOUTH DAKOTA
NATIONAL WEATHER SERVICE SIOUX FALLS SD
200 PM CDT TUE JUL 22 2014

NOTE: "FAIR" INDICATES FEW OR NO CLOUDS BELOW 12,000 FEET WITH NO
SIGNIFICANT WEATHER AND/OR OBSTRUCTIONS TO VISIBILITY.


SDZ001>005-009-010-012>017-222000-
NORTHWEST AND NORTH CENTRAL SOUTH DAKOTA

CITY           SKY/WX    TMP DP  RH WIND       PRES   REMARKS
BUFFALO          N/A     85  58  39 SE8       30.15F
FAITH            N/A     81  62  52 E6        30.21F
MOBRIDGE       SUNNY     81  61  50 N9        30.16F
$$

SDZ012>016-024>037-041>051-057-063-072>074-222000-
SOUTHWEST AND SOUTH CENTRAL SOUTH DAKOTA

CITY           SKY/WX    TMP DP  RH WIND       PRES   REMARKS
RAPID CTY ARPT SUNNY     83  60  45 SE7       30.22F
PIERRE         MOSUNNY   84  58  40 NE13      30.16S
CUSTER         MOSUNNY   80  54  40 S8        30.36S
ELLSWORTH AFB  MOSUNNY   84  58  41 VRB6      30.22F
PHILIP         SUNNY     85  61  44 VRB6      30.19R
PINE RIDGE     SUNNY     83  63  50 E7        30.24S
WINNER         FAIR      83  63  50 NE8       30.19S
$$

SDZ004>011-016>023-039-040-222000-
NORTHEAST SOUTH DAKOTA

CITY           SKY/WX    TMP DP  RH WIND       PRES   REMARKS
ABERDEEN       SUNNY     78  61  55 N13       30.16R
WATERTOWN      MOSUNNY   77  55  46 NE17      30.14S
SISSETON         N/A     78  57  48 NE14G22   30.13R
$$

SDZ017-020-022-023-036>040-048>070-222000-
SOUTHEAST SOUTH DAKOTA

CITY           SKY/WX    TMP DP  RH WIND       PRES   REMARKS
SIOUX FALLS    MOSUNNY   81  65  58 NE10      30.13R
HURON          MOSUNNY   80  59  48 N15       30.14R
CHAMBERLAIN    MOSUNNY   82  63  53 NE9       30.17S
MITCHELL       SUNNY     81  63  54 N10G21    30.15R
YANKTON        MOSUNNY   79  68  69 NW8       30.14R
$$

ABBREVIATIONS USED IN REMARKS
   TC - TEMPERATURE IN CELSIUS
  WCI - WIND CHILL INDEX
   HX - HEAT INDEX
  VSB - VISIBILITY



USA.gov is the U.S. government's official web portal to all federal, state and local government web resources and services.